| time (UTC) | temp C | wind direction | speed KPH | gust KPH | rain 1hr cm | rain 24hr cm | rain mn cm | humidity % | barometer mb |
| 20260505051537 | 6 | 179 | 16.1 | 24.1 | 0.00 | 0.38 | 0.00 | 84 | 1008.1 |
| 20260505041525 | 7 | 195 | 14.5 | 27.4 | 0.00 | 0.43 | 0.00 | 82 | 1007.2 |
| 20260505040024 | 7 | 182 | 16.1 | 24.1 | 0.00 | 0.43 | 0.00 | 82 | 1007.1 |
| 20260505034523 | 7 | 205 | 14.5 | 30.6 | 0.00 | 0.51 | 0.00 | 83 | 1006.9 |
| 20260505033021 | 7 | 183 | 14.5 | 29.0 | 0.00 | 0.51 | 0.00 | 82 | 1006.7 |
| 20260505031536 | 7 | 171 | 14.5 | 25.7 | 0.00 | 0.51 | 0.00 | 82 | 1006.4 |
| 20260505030014 | 7 | 198 | 11.3 | 27.4 | 0.00 | 0.51 | 0.51 | 81 | 1006.2 |
| 20260505024520 | 7 | 173 | 14.5 | 27.4 | 0.00 | 0.51 | 0.51 | 80 | 1006.0 |
| 20260505023013 | 7 | 161 | 16.1 | 32.2 | 0.00 | 0.51 | 0.51 | 79 | 1005.8 |
| 20260505021516 | 7 | 224 | 12.9 | 27.4 | 0.00 | 0.51 | 0.51 | 78 | 1005.7 |
| 20260505020022 | 8 | 155 | 16.1 | 29.0 | 0.00 | 0.53 | 0.51 | 77 | 1005.5 |
| 20260505014507 | 8 | 149 | 14.5 | 27.4 | 0.00 | 0.53 | 0.51 | 75 | 1005.3 |
| 20260505013007 | 8 | 168 | 14.5 | 27.4 | 0.00 | 0.53 | 0.51 | 74 | 1005.4 |
| 20260505011506 | 9 | 169 | 12.9 | 20.9 | 0.00 | 0.53 | 0.51 | 72 | 1005.4 |
| 20260505010004 | 9 | 163 | 17.7 | 29.0 | 0.00 | 0.58 | 0.51 | 71 | 1005.2 |
| 20260505004503 | 9 | 207 | 14.5 | 27.4 | 0.00 | 0.58 | 0.51 | 70 | 1005.1 |
| 20260505003004 | 9 | 197 | 9.7 | 25.7 | 0.00 | 0.58 | 0.51 | 69 | 1005.1 |
| 20260505001503 | 10 | 202 | 9.7 | 24.1 | 0.00 | 0.58 | 0.51 | 67 | 1005.3 |
| 20260505000004 | 9 | 218 | 14.5 | 25.7 | 0.00 | 0.69 | 0.51 | 66 | 1005.0 |
| 20260504234600 | 9 | 203 | 11.3 | 22.5 | 0.00 | 0.69 | 0.51 | 66 | 1004.9 |
| 20260504233101 | 10 | 197 | 14.5 | 24.1 | 0.00 | 0.69 | 0.51 | 64 | 1004.6 |
| 20260504231554 | 10 | 244 | 17.7 | 29.0 | 0.00 | 0.69 | 0.51 | 57 | 1003.9 |
| 20260504230105 | 10 | 232 | 17.7 | 33.8 | 0.00 | 0.69 | 0.51 | 57 | 1003.8 |
| 20260504224552 | 10 | 193 | 17.7 | 38.6 | 0.00 | 0.99 | 0.51 | 58 | 1003.8 |
| 20260504223051 | 10 | 223 | 19.3 | 38.6 | 0.00 | 0.99 | 0.51 | 60 | 1003.5 |
| 20260504221559 | 10 | 218 | 17.7 | 30.6 | 0.00 | 0.99 | 0.51 | 61 | 1003.5 |
| 20260504220047 | 10 | 226 | 19.3 | 37.0 | 0.00 | 0.99 | 0.51 | 62 | 1003.2 |
| 20260504214546 | 11 | 276 | 19.3 | 29.0 | 0.00 | 1.19 | 0.51 | 62 | 1002.9 |
| 20260504213046 | 11 | 230 | 16.1 | 30.6 | 0.00 | 1.19 | 0.51 | 64 | 1003.2 |
| 20260504211547 | 11 | 220 | 16.1 | 33.8 | 0.00 | 1.19 | 0.51 | 65 | 1002.9 |
| 20260504210041 | 10 | 213 | 19.3 | 33.8 | 0.00 | 1.19 | 0.51 | 66 | 1002.7 |
| 20260504204540 | 10 | 205 | 19.3 | 33.8 | 0.00 | 1.45 | 0.51 | 67 | 1002.6 |
| 20260504203037 | 11 | 228 | 17.7 | 29.0 | 0.00 | 1.45 | 0.51 | 69 | 1002.3 |
| 20260504201535 | 11 | 241 | 14.5 | 29.0 | 0.00 | 1.45 | 0.51 | 69 | 1002.2 |
| 20260504200034 | 11 | 268 | 12.9 | 25.7 | 0.00 | 1.45 | 0.51 | 70 | 1002.0 |
| 20260504194532 | 11 | 249 | 14.5 | 22.5 | 0.00 | 1.57 | 0.51 | 70 | 1001.6 |
| 20260504193030 | 11 | 250 | 11.3 | 35.4 | 0.00 | 1.57 | 0.51 | 71 | 1001.5 |
| 20260504191527 | 11 | 238 | 14.5 | 37.0 | 0.00 | 1.57 | 0.51 | 72 | 1001.4 |
| 20260504190024 | 10 | 251 | 14.5 | 30.6 | 0.00 | 1.57 | 0.51 | 73 | 1001.1 |
| 20260504184521 | 10 | 243 | 16.1 | 48.3 | 0.00 | 1.57 | 0.51 | 73 | 1000.9 |
| 20260504183020 | 10 | 334 | 20.9 | 45.1 | 0.00 | 1.57 | 0.51 | 74 | 1000.8 |
| 20260504181516 | 9 | 245 | 20.9 | 43.5 | 0.00 | 1.57 | 0.51 | 76 | 1000.6 |
| 20260504180012 | 8 | 263 | 19.3 | 41.8 | 0.00 | 1.60 | 0.51 | 80 | 1000.4 |
| 20260504174509 | 8 | 244 | 20.9 | 41.8 | 0.00 | 1.60 | 0.51 | 83 | 1000.3 |
| 20260504173006 | 8 | 243 | 22.5 | 41.8 | 0.00 | 1.60 | 0.51 | 84 | 1000.1 |
| 20260504171503 | 7 | 263 | 20.9 | 46.7 | 0.00 | 1.60 | 0.51 | 83 | 999.9 |
| 20260504081529 | 2 | 222 | 33.8 | 66.0 | 0.00 | 1.35 | 0.23 | 92 | 981.0 |